Weather History for Park Rapids, MN

Change the Weather History Date:

Thursday, December 16, 2010

  Actual Average Record
Temperature  
Mean Temperature 8 °F -  
Max Temperature 16 °F 23 °F 45 °F (1959)
Min Temperature 0 °F 2 °F -28 °F (1963)
Degree Days  
Heating Degree Days 57    
Moisture  
Dew Point 0 °F    
Average Humidity 62    
Maximum Humidity 80    
Minimum Humidity 39    
Precipitation  
Precipitation 0.00 in - - ()
Sea Level Pressure  
Sea Level Pressure 29.97 in    
Wind  
Wind Speed 4 mph (NNW)    
Max Wind Speed 14 mph    
Max Gust Speed -    
Visibility 10 miles    
Events      
Averages and records for this station are not official NWS values.
T = Trace of Precipitation, MM = Missing Value Source: NWS Daily Summary

Daily Weather History Graph

Daily Weather History Graph

Search for Another Location

Airport:

Trip Planner

Search our weather history database for the weather conditions in past years. The results will help you decide how hot, cold, wet, or windy it might be!

Date:

Astronomy

Dec. 16, 2010 Rise Set
Actual Time 7:59 AM CST 4:32 PM CST
Civil Twilight 7:24 AM CST 5:07 PM CST
Nautical Twilight 6:45 AM CST 5:46 PM CST
Astronomical Twilight 6:08 AM CST 6:23 PM CST
Moon 1:14 PM CST (12/16) 3:08 AM CST (12/16)
Length of Visible Light 9h 43m
Length of Day
8h 32m
Waxing Gibbous, 78% of the Moon is Illuminated
Dec 16
Waxing Gibbous
Dec 21
Full
Dec 27
Last Quarter
Jan 4
New
Jan 12
First Quarter

Hourly Weather History & Observations

Time (CST) Temp. Windchill Dew Point Humidity Pressure Visibility Wind Dir Wind Speed Gust Speed Precip Events Conditions
12:53 AM 12.9 °F 6.9 °F 1.0 °F 59% 29.96 in 10.0 mi ENE 3.5 mph - N/A   Mostly Cloudy
1:53 AM 12.9 °F - 1.9 °F 62% 29.96 in 10.0 mi Calm Calm - N/A   Mostly Cloudy
2:50 AM 12.2 °F 6.1 °F 1.4 °F 62% 29.88 in 10.0 mi ENE 3.5 mph - N/A   Mostly Cloudy
2:53 AM 12.9 °F 6.9 °F 1.0 °F 59% 29.96 in 10.0 mi ENE 3.5 mph - N/A   Mostly Cloudy
3:24 AM 12.2 °F - 1.4 °F 62% 29.87 in 10.0 mi Calm Calm - N/A   Scattered Clouds
3:53 AM 12.0 °F 4.1 °F 1.0 °F 61% 29.96 in 10.0 mi NE 4.6 mph - N/A   Clear
4:53 AM 12.0 °F - 1.0 °F 61% 29.96 in 10.0 mi Calm Calm - N/A   Clear
5:53 AM 10.0 °F 1.8 °F -0.0 °F 64% 29.97 in 10.0 mi NNW 4.6 mph - N/A   Clear
6:53 AM 9.0 °F 2.4 °F -0.0 °F 67% 29.98 in 10.0 mi NNW 3.5 mph - N/A   Clear
7:53 AM 9.0 °F 0.6 °F -0.0 °F 67% 29.98 in 10.0 mi North 4.6 mph - N/A   Clear
8:28 AM 10.4 °F 0.8 °F -0.4 °F 62% 29.89 in 1.8 mi North 5.8 mph - N/A   Haze
8:37 AM 10.4 °F 2.2 °F 1.4 °F 67% 29.89 in 3.0 mi North 4.6 mph - N/A   Haze
8:53 AM 10.0 °F 3.6 °F 1.0 °F 67% 29.99 in 10.0 mi North 3.5 mph - N/A   Clear
9:53 AM 10.9 °F 4.7 °F 1.0 °F 64% 30.00 in 10.0 mi North 3.5 mph - N/A   Clear
10:53 AM 10.9 °F 2.9 °F 1.0 °F 64% 30.01 in 10.0 mi WNW 4.6 mph - N/A   Clear
11:53 AM 12.2 °F 6.1 °F 1.4 °F 62% 29.90 in 10.0 mi West 3.5 mph - N/A   Clear
12:53 PM 14.0 °F 6.5 °F 1.0 °F 56% 29.99 in 10.0 mi West 4.6 mph - N/A   Clear
1:53 PM 15.8 °F 8.6 °F 1.4 °F 53% 29.90 in 10.0 mi West 4.6 mph - N/A   Clear
2:53 PM 16.0 °F 5.3 °F -0.0 °F 49% 29.99 in 10.0 mi NW 8.1 mph - N/A   Clear
3:53 PM 15.1 °F 7.7 °F -0.9 °F 49% 30.00 in 10.0 mi NW 4.6 mph - N/A   Scattered Clouds
4:53 PM 14.0 °F 1.2 °F -7.1 °F 39% 30.02 in 10.0 mi NNW 10.4 mph - N/A   Clear
5:53 PM 8.1 °F -2.0 °F -7.1 °F 50% 30.03 in 10.0 mi NW 5.8 mph - N/A   Partly Cloudy
6:53 PM -0.0 °F -11.6 °F -9.9 °F 63% 30.05 in 10.0 mi WNW 5.8 mph - N/A   Clear
7:53 PM 6.1 °F -5.6 °F -6.0 °F 58% 30.03 in 10.0 mi NW 6.9 mph - N/A   Overcast
8:53 PM 6.1 °F -6.8 °F -2.0 °F 69% 30.03 in 10.0 mi WNW 8.1 mph - N/A   Overcast
9:53 PM 1.0 °F -11.7 °F -4.0 °F 79% 30.03 in 10.0 mi West 6.9 mph - N/A   Scattered Clouds
10:53 PM 9.0 °F -5.9 °F 3.9 °F 80% 30.03 in 10.0 mi WNW 11.5 mph - N/A   Overcast
11:53 PM 10.0 °F -5.9 °F 3.9 °F 76% 30.02 in 10.0 mi WNW 13.8 mph - N/A   Overcast